TimeEST,TemperatureF,Dew PointF,Humidity,Sea Level PressureIn,VisibilityMPH,Wind Direction,Wind SpeedMPH,Gust SpeedMPH,PrecipitationIn,Events,Conditions,WindDirDegrees,DateUTC
5:00 AM,1.4,-5.8,72,29.83,15.0,West,4.6,-,N/A,,Mostly Cloudy,260,2012-12-11 10:00:00
6:00 AM,-0.4,-5.8,78,29.84,15.0,West,6.9,-,N/A,,Scattered Clouds,280,2012-12-11 11:00:00
6:27 AM,-9999,-9999,N/A,-9999,15.0,West,5.8,-,N/A,,Unknown,280,2012-12-11 11:27:00
7:00 AM,-1,-7,65,29.87,15,West,5.8,,,Snow,Light Snow,280,2012-12-11 12:00:00
7:00 AM,-0.4,-7.6,72,29.87,15.0,West,6.9,-,N/A,Snow,Light Snow,280,2012-12-11 12:00:00
8:00 AM,-2.2,-7.6,78,29.90,15.0,West,4.6,-,N/A,,Overcast,260,2012-12-11 13:00:00
9:00 AM,-2.2,-9.4,71,29.91,15.0,WNW,5.8,-,N/A,,Partly Cloudy,300,2012-12-11 14:00:00
10:00 AM,-0.4,-7.6,72,29.95,15.0,West,8.1,-,N/A,,Partly Cloudy,280,2012-12-11 15:00:00
11:00 AM,1.4,-5.8,72,29.98,15.0,SW,6.9,-,N/A,Snow,Light Snow,230,2012-12-11 16:00:00
12:00 PM,3.2,-4.0,72,29.96,15.0,WSW,2.3,-,N/A,Snow,Light Snow,250,2012-12-11 17:00:00
12:52 PM,-9999,-9999,N/A,-9999,15.0,WSW,6.9,-,N/A,,Partly Cloudy,250,2012-12-11 17:52:00
1:00 PM,4,-5,54,29.96,15,West,4.6,,,Snow,Light Snow,260,2012-12-11 18:00:00
1:00 PM,5.0,-4.0,66,29.96,15.0,West,4.6,-,N/A,,Partly Cloudy,260,2012-12-11 18:00:00
2:00 PM,5.0,-4.0,66,29.99,15.0,West,4.6,-,N/A,,Partly Cloudy,270,2012-12-11 19:00:00
3:00 PM,5.0,-2.2,72,30.01,15.0,SW,2.3,-,N/A,,Scattered Clouds,230,2012-12-11 20:00:00
4:00 PM,62.6,-4.0,7,29.98,15.0,West,4.6,-,N/A,,Partly Cloudy,270,2012-12-11 21:00:00
5:00 PM,-2.2,-7.6,78,30.00,15.0,SW,4.6,-,N/A,,Partly Cloudy,230,2012-12-11 22:00:00
6:00 PM,-4.0,-9.4,78,30.02,15.0,South,3.5,-,N/A,,Overcast,190,2012-12-11 23:00:00
7:00 PM,-3,-9,63,30.09,15,SSW,2.3,,,,Mostly Cloudy,210,2012-12-12 00:00:00
7:00 PM,-2.2,-9.4,71,30.09,15.0,SW,2.3,-,N/A,,Mostly Cloudy,220,2012-12-12 00:00:00
8:00 PM,-2.2,-9.4,71,30.11,15.0,SSW,4.6,-,N/A,,Overcast,210,2012-12-12 01:00:00
9:00 PM,1.4,-5.8,72,30.12,15.0,SW,3.5,-,N/A,,Mostly Cloudy,220,2012-12-12 02:00:00
10:00 PM,-4.0,-11.2,71,30.13,15.0,Calm,Calm,-,N/A,,Mostly Cloudy,0,2012-12-12 03:00:00
11:00 PM,1.4,-4.0,78,30.13,15.0,SW,3.5,-,N/A,,Overcast,220,2012-12-12 04:00:00